EW7157 Weather Reports


Display with metric or nautical units.
time (UTC)temp
F
wind
direction
speed
MPH
gust
MPH
rain 1hr
in
rain 24hr
in
rain mn
in
humidity
%
barometer
mb
20260506005513 74 247 0.0 0.0 0.00 0.00 0.00 41 1032.0
20260506004516 74 324 0.0 0.0 0.00 0.00 0.00 39 1031.9
20260506003614 74 14 0.0 1.0 0.00 0.00 0.00 39 1031.7
20260506003515 74 14 0.0 2.0 0.00 0.00 0.00 39 1031.7
20260506000614 75 2 1.0 3.0 0.00 0.00 0.00 39 1031.4
20260505235613 75 337 0.0 0.0 0.00 0.00 0.00 40 1031.3
20260505234614 76 350 1.0 4.0 0.00 0.00 0.00 40 1031.2
20260505233615 76 7 0.0 3.0 0.00 0.00 0.00 40 1031.2
20260505233514 76 22 1.0 2.0 0.00 0.00 0.00 40 1031.1
20260505230516 77 41 1.0 4.0 0.00 0.00 0.00 38 1031.0
20260505225515 77 337 0.0 0.0 0.00 0.00 0.00 37 1031.0
20260505224515 78 225 0.0 1.0 0.00 0.00 0.00 36 1030.8
20260505224415 78 79 0.0 3.0 0.00 0.00 0.00 35 1030.8
20260505223415 78 218 0.0 3.0 0.00 0.00 0.00 34 1030.8
20260505222514 78 278 1.0 3.0 0.00 0.00 0.00 34 1030.6
20260505221614 78 274 0.0 3.0 0.00 0.00 0.00 34 1030.7
20260505221516 78 142 0.0 1.0 0.00 0.00 0.00 33 1030.7
20260505221415 78 201 1.0 3.0 0.00 0.00 0.00 33 1030.9
20260505221314 78 313 1.0 8.0 0.00 0.00 0.00 33 1030.7
20260505220414 79 189 1.0 3.0 0.00 0.00 0.00 33 1030.7
20260505215415 79 5 0.0 2.0 0.00 0.00 0.00 32 1030.6
20260505214513 79 139 0.0 2.0 0.00 0.00 0.00 32 1030.6
20260505213516 79 246 1.0 5.0 0.00 0.00 0.00 31 1030.7
20260505212613 79 289 1.0 9.0 0.00 0.00 0.00 31 1030.7
20260505210617 79 293 0.0 3.0 0.00 0.00 0.00 30 1030.6
20260505205714 79 315 0.0 0.0 0.00 0.00 0.00 28 1030.5
20260505204813 80 274 0.0 2.0 0.00 0.00 0.00 27 1030.4
20260505202817 82 214 0.0 2.0 0.00 0.00 0.00 25 1030.5
20260505201817 82 191 2.0 5.0 0.00 0.00 0.00 26 1030.5
20260505200913 83 62 3.0 8.0 0.00 0.00 0.00 26 1030.5
20260505200814 83 45 0.0 0.0 0.00 0.00 0.00 27 1030.6
20260505200715 83 58 0.0 1.0 0.00 0.00 0.00 26 1030.5
20260505195714 83 190 0.0 4.0 0.00 0.00 0.00 28 1030.6
20260505194813 83 146 0.0 2.0 0.00 0.00 0.00 27 1030.6
20260505193814 83 297 1.0 7.0 0.00 0.00 0.00 27 1030.7
20260505193715 83 312 0.0 2.0 0.00 0.00 0.00 28 1030.6
20260505193616 83 331 1.0 4.0 0.00 0.00 0.00 27 1030.7
20260505192615 82 322 1.0 2.0 0.00 0.00 0.00 28 1030.6
20260505190616 83 234 0.0 2.0 0.00 0.00 0.00 29 1031.2
20260505185715 83 170 0.0 4.0 0.00 0.00 0.00 30 1031.2
20260505184813 83 35 0.0 1.0 0.00 0.00 0.00 29 1031.4
20260505183814 84 360 0.0 1.0 0.00 0.00 0.00 30 1031.4
20260505181814 85 300 1.0 3.0 0.00 0.00 0.00 33 1031.7
20260505180813 84 90 0.0 0.0 0.00 0.00 0.00 33 1031.8
20260505175815 84 228 2.0 7.0 0.00 0.00 0.00 33 1032.1
20260505174815 83 339 0.0 2.0 0.00 0.00 0.00 35 1032.2
20260505174714 83 33 0.0 1.0 0.00 0.00 0.00 34 1032.2
20260505173715 83 345 0.0 4.0 0.00 0.00 0.00 33 1032.1
20260505170814 83 40 0.0 2.0 0.00 0.00 0.00 36 1032.3
20260505165814 82 113 0.0 0.0 0.00 0.00 0.00 35 1032.3
20260505164814 82 254 0.0 2.0 0.00 0.00 0.00 35 1032.5
20260505163814 82 104 0.0 2.0 0.00 0.00 0.00 35 1032.6
20260505162815 81 319 0.0 1.0 0.00 0.00 0.00 36 1032.6
20260505161013 79 268 1.0 4.0 0.00 0.00 0.00 38 1032.7
20260505153031 80 274 1.0 3.0 0.00 0.00 0.00 35 1033.0
20260505152114 80 244 2.0 4.0 0.00 0.00 0.00 36 1033.1
20260505151114 80 188 0.0 2.0 0.00 0.00 0.00 36 1033.0
20260505151015 80 235 0.0 2.0 0.00 0.00 0.00 36 1033.0
20260505140130 76 180 0.0 1.0 0.00 0.00 0.00 42 1033.5
20260505130215 66 45 0.0 0.0 0.00 0.00 0.00 56 1034.0
20260505124314 64 270 0.0 0.0 0.00 0.00 0.00 61 1033.9
20260505123413 63 45 0.0 3.0 0.00 0.00 0.00 63 1033.9
20260505121414 61 135 0.0 0.0 0.00 0.00 0.00 68 1033.7
20260505120415 60 90 0.0 0.0 0.00 0.00 0.00 73 1033.7
20260505115416 59 90 0.0 0.0 0.00 0.00 0.00 75 1033.7
20260505114416 58 225 0.0 0.0 0.00 0.00 0.00 77 1033.7
20260505113416 57 270 0.0 0.0 0.00 0.00 0.00 79 1033.7
20260505112414 56 360 0.0 0.0 0.00 0.00 0.00 81 1033.5
20260505110513 56 360 0.0 0.0 0.00 0.00 0.00 80 1033.4
20260505101614 55 45 0.0 1.0 0.00 0.00 0.00 80 1033.1
20260505100614 55 45 0.0 0.0 0.00 0.00 0.00 81 1033.0
20260505095713 55 45 0.0 0.0 0.00 0.00 0.00 79 1032.8
20260505094715 55 45 0.0 0.0 0.00 0.00 0.00 79 1032.8
20260505093715 55 45 0.0 0.0 0.00 0.00 0.00 79 1032.7
20260505091615 55 45 0.0 0.0 0.00 0.00 0.00 78 1032.8
20260505091516 55 45 0.0 0.0 0.00 0.00 0.00 78 1032.8
20260505090514 55 135 0.0 0.0 0.00 0.00 0.00 78 1032.6
20260505085613 55 135 0.0 0.0 0.00 0.00 0.00 78 1032.6
20260505084613 56 135 0.0 0.0 0.00 0.00 0.00 77 1032.7
20260505083614 56 135 0.0 0.0 0.00 0.00 0.00 76 1032.8
20260505082616 56 135 0.0 0.0 0.00 0.00 0.00 76 1032.8
20260505081614 56 135 0.0 0.0 0.00 0.00 0.00 75 1032.5
20260505081516 56 135 0.0 0.0 0.00 0.00 0.00 75 1032.6
20260505075614 57 135 0.0 0.0 0.00 0.00 0.00 74 1032.6
20260505073615 57 135 0.0 0.0 0.00 0.00 0.00 72 1032.8
20260505072615 57 135 0.0 0.0 0.00 0.00 0.00 72 1032.8
20260505072514 57 135 0.0 0.0 0.00 0.00 0.00 71 1032.8
20260505072414 57 135 0.0 0.0 0.00 0.00 0.00 71 1032.7
20260505071514 58 135 0.0 0.0 0.00 0.00 0.00 71 1032.8
20260505070517 58 135 0.0 0.0 0.00 0.00 0.00 71 1032.6
20260505064515 58 45 0.0 0.0 0.00 0.00 0.00 70 1032.7
20260505063514 58 45 0.0 0.0 0.00 0.00 0.00 69 1032.7
20260505062516 58 45 0.0 0.0 0.00 0.00 0.00 68 1032.5
20260505062417 58 45 0.0 1.0 0.00 0.00 0.00 67 1032.6
20260505061414 58 45 0.0 2.0 0.00 0.00 0.00 67 1032.6
20260505060415 59 45 0.0 1.0 0.00 0.00 0.00 67 1032.5
20260505054415 59 270 0.0 0.0 0.00 0.00 0.00 63 1032.6
20260505053513 60 315 0.0 0.0 0.00 0.00 0.00 63 1032.7
20260505052516 60 315 0.0 1.0 0.00 0.00 0.00 63 1032.8
20260505051515 60 315 0.0 0.0 0.00 0.00 0.00 61 1032.8
20260505040714 59 270 0.0 0.0 0.00 0.00 0.00 59 1032.7
20260505035723 59 45 0.0 0.0 0.00 0.00 0.00 58 1032.6
20260505034822 60 180 0.0 0.0 0.00 0.00 0.00 57 1032.6
20260505034723 60 180 0.0 0.0 0.00 0.00 0.00 56 1032.6
20260505033722 60 233 0.0 0.0 0.00 0.00 0.00 53 1032.6
20260505031726 60 180 0.0 0.0 0.00 0.00 0.00 52 1032.8
20260505030824 60 315 0.0 1.0 0.00 0.00 0.00 54 1032.7
20260505025922 60 315 0.0 0.0 0.00 0.00 0.00 54 1032.7
20260505024924 61 315 0.0 0.0 0.00 0.00 0.00 52 1032.9
20260505023926 60 315 0.0 0.0 0.00 0.00 0.00 54 1033.0
20260505022022 61 270 0.0 0.0 0.00 0.00 0.00 54 1033.0
20260505021024 61 360 0.0 1.0 0.00 0.00 0.00 54 1033.0
20260505020023 62 360 0.0 0.0 0.00 0.00 0.00 52 1032.9
20260505015923 62 360 0.0 0.0 0.00 0.00 0.00 52 1033.0
20260505015825 62 360 0.0 0.0 0.00 0.00 0.00 51 1032.9
20260505014826 62 360 0.0 2.0 0.00 0.00 0.00 51 1033.0
20260505013924 61 337 0.0 1.0 0.00 0.00 0.00 52 1033.0
20260505013823 61 337 0.0 0.0 0.00 0.00 0.00 53 1032.9
20260505010922 60 112 0.0 0.0 0.00 0.00 0.00 57 1032.6
20260505005923 60 112 0.0 0.0 0.00 0.00 0.00 54 1032.6